Back to catalog

STARLINK-33612

AliveCommunicationsVLEO
NORAD 63325·PAYLOAD·🇺🇸 United States

Launched Mar 18, 2025 from Cape Canaveral Space Force Station

Loading…

Next Passes (next 24 hours)

TLE

FreshSource: CelesTrak SupGP

Epoch: Sep 15, 2026, 02:29 UTC

1 63325C 25057U   26258.10395833 -.00027123  00000+0 -98228-3 0  2589
2 63325  43.0041  41.4242 0001431 269.4229  51.1842 15.27595564    14

Track STARLINK-33612 in real time with AllMySat

Download on the App Store